Regional Weather Roundup
Issued by NWS

Home | Current Version | Previous Version | Text Only | Print | Product List | Glossary Off
Versions: 1 2 3 4 5 6 7 8 9 10 11 12 13 14 15 16 17 18 19 20 21 22 23 24 25 26 27 28 29 30 31 32 33 34 35 36 37 38 39 40 41 42 43 44 45 46 47 48 49 50

000
ASUS43 KTOP 281108
RWRKS

WEATHER ROUNDUP FOR KANSAS
NATIONAL WEATHER SERVICE GOODLAND KS
600 AM CDT SAT MAR 28 2015

NOTE:  "FAIR" INDICATES FEW OR NO CLOUDS BELOW 12,000 FEET WITH NO
SIGNIFICANT WEATHER AND/OR OBSTRUCTIONS TO VISIBILITY.

KSZ001>006-013>018-027>032-041>047-281200-
NORTHWEST KANSAS

CITY           SKY/WX    TMP DP  RH WIND       PRES   REMARKS
GOODLAND       CLEAR     41  33  73 W6        30.00S
HAYS           CLEAR     36  27  69 NW7       29.94S
HILL CITY      PTCLDY    36  31  82 W6        29.95S
RUSSELL        CLEAR     33  31  92 SE8       29.93R
$$

KSZ061>065-074>080-084>089-281200-
SOUTHWEST KANSAS

CITY           SKY/WX    TMP DP  RH WIND       PRES   REMARKS
DODGE CITY     CLEAR     48  34  58 W12       29.97R
ELKHART          N/A     51  31  46 W9          N/A
GARDEN CITY    FAIR      40  34  79 N7        29.97R
GREAT BEND     CLEAR     32  27  80 S6        29.95F
LIBERAL        CLEAR     48  32  53 W13       30.01S
PRATT          CLEAR     39  34  81 SW10      29.95S WCI  32
$$

KSZ066>073-081>083-090>101-281200-
SOUTHEAST KANSAS

CITY           SKY/WX    TMP DP  RH WIND       PRES   REMARKS
CHANUTE        CLOUDY    41  29  62 SE8       30.05F
COFFEYVILLE    CLOUDY    42  34  73 SE5       30.06R
HUTCHINSON     CLEAR     38  31  76 SE7       29.98S
MEDICINE LODGE   N/A     37  35  92 S3        29.97R
NEWTON         MOCLDY    41  28  60 S7        30.00S
PARSONS        CLOUDY    42  35  76 VRB3      30.07R
WICHITA INTL   PTCLDY    41  31  67 SE9       29.99S
WICHITA JABRA  MOCLDY    41  31  67 S9        29.99S
WICHITA MCCONL PTCLDY    42  31  64 SE9       29.99S
WINFIELD       CLOUDY    43  31  62 SE10      30.03R
$$

KSZ007>012-019>026-033>040-048>060-102>105-281200-
NORTHEAST KANSAS

CITY           SKY/WX    TMP DP  RH WIND       PRES   REMARKS
CONCORDIA      CLEAR     32  24  72 E3        30.00R
EMPORIA        MOCLDY    38  27  64 E8        30.02R
LAWRENCE       CLOUDY    38  26  62 E13       30.10R WCI  30
MANHATTAN      MOCLDY    38  26  62 E5        30.02S
MARYSVILLE     CLOUDY    36  28  75 SE10      30.04R WCI  28
OLATHE IND     CLOUDY    38  25  59 E10       30.10S WCI  31
OLATHE EXE     CLOUDY    38  25  59 E10       30.10R WCI  31
SALINA         CLEAR     37  29  72 CALM      29.97F
TOPEKA BILLARD CLOUDY    40  25  55 E10       30.08S WCI  33
TOPEKA FORBES  CLOUDY    40  26  57 SE10      30.05S WCI  33
$$



USA.gov is the U.S. government's official web portal to all federal, state and local government web resources and services.